Probability
0 0 0 0 0 0 0 0 0 0 0 3 3 0 0 3 3 0 6 19 23 23 39 55 61 61 61 61 65 61 68 77 68 74 65 58 55 58 55 58 52 48 45 45
0 0 0 0 0 0 0 0 0 0 0 0 3 0 0 0 0 0 3 23 26 29 45 55 55 65 61 65 61 71 68 71 74 71 71 71 58 61 61 55 65 55 52 48
0 0 0 0 0 0 0 0 0 0 0 3 3 3 0 3 0 0 3 16 26 39 45 58 61 61 61 55 52 55 65 68 68 74 68 55 68 65 65 61 68 48 48 42
0 0 0 0 0 0 0 0 0 0 0 0 3 3 0 3 3 0 3 3 16 35 42 52 52 58 52 52 52 58 68 65 71 81 71 55 65 55 52 65 65 61 52 39
0 0 0 0 0 0 0 0 0 0 0 0 0 0 3 3 3 3 3 6 19 29 35 45 45 55 48 48 48 61 71 68 68 74 77 65 55 58 52 42 58 52 42 35
0 0 0 0 0 0 0 0 0 0 0 0 0 0 3 3 3 10 6 10 16 23 29 39 55 58 52 52 58 55 58 58 55 65 65 65 61 61 48 45 45 42 39 39
0 0 0 0 0 0 0 0 0 0 0 0 0 0 6 3 6 10 13 13 16 19 32 39 52 52 58 52 52 58 55 52 55 58 58 61 61 61 48 45 48 35 35 35
0 0 0 0 0 0 0 0 0 0 0 0 0 0 6 10 6 13 16 19 26 23 26 32 39 52 42 45 48 55 48 48 52 52 65 65 61 48 55 42 45 39 35 35
0 0 0 0 0 0 0 0 0 0 0 0 0 3 10 10 13 16 16 23 19 26 32 39 39 45 32 35 45 45 45 45 48 55 58 55 55 48 42 39 39 39 39 39
0 0 0 0 0 0 0 0 0 0 0 0 0 0 6 13 16 19 16 10 23 29 35 42 35 39 32 39 39 35 42 42 45 42 45 29 39 45 32 29 35 39 32 32
0 0 0 0 0 0 0 0 0 0 0 0 0 3 10 16 13 10 10 13 19 29 32 32 32 35 35 42 32 29 26 42 39 35 39 35 32 26 29 29 26 29 29 29
0 3 0 0 0 0 0 0 0 0 3 0 0 6 13 16 10 10 13 23 23 26 29 29 32 39 39 32 26 29 29 23 32 35 32 39 32 26 23 19 19 29 29 26
0 3 0 0 0 0 0 0 0 0 3 0 0 6 23 10 10 13 16 19 19 23 23 29 35 42 39 29 26 26 26 29 29 26 29 32 32 29 26 29 26 26 23 26
0 3 0 0 0 0 0 0 0 0 0 0 3 10 10 10 10 13 23 26 23 23 23 32 35 35 32 29 19 23 26 29 23 23 26 29 35 39 29 29 26 16 19 23
3 3 0 0 0 0 0 0 0 0 0 0 6 10 6 16 10 16 19 29 26 26 19 26 29 29 26 23 19 23 19 23 26 26 23 26 35 32 26 29 26 23 23 13
0 3 0 0 0 0 0 0 0 0 6 6 6 6 6 16 13 19 19 26 23 19 26 26 32 35 29 26 19 23 23 23 29 29 23 26 26 23 23 26 23 23 19 13
0 6 0 0 0 0 0 3 3 3 6 6 6 6 10 13 16 16 23 26 26 19 19 32 32 39 39 32 29 23 19 23 16 16 19 19 19 19 19 13 16 19 23 19
6 13 16 6 0 0 3 0 0 0 0 3 0 3 6 10 10 13 23 23 23 19 35 35 35 39 39 39 32 32 26 23 23 23 16 19 19 16 16 19 19 19 19 16
10 13 3 3 0 0 0 0 0 0 0 3 0 3 3 6 6 10 23 23 26 26 35 42 39 35 39 39 39 35 32 23 13 16 19 13 13 16 16 16 26 26 26 23
3 6 6 0 0 0 0 0 0 3 0 0 0 3 3 3 10 16 26 29 26 35 39 39 32 35 35 39 39 39 32 29 23 19 19 19 16 19 10 19 29 32 29 23
3 6 0 0 0 0 0 3 0 0 0 0 3 6 13 6 16 19 23 29 32 32 35 39 35 35 42 42 42 39 39 29 26 23 26 23 26 23 23 26 29 29 29 29
3 3 6 3 3 0 6 3 3 10 10 13 13 13 16 23 16 13 19 19 26 29 32 42 42 42 39 42 45 35 42 39 29 26 26 26 29 23 13 32 26 26 32 32
3 10 10 6 3 6 6 6 13 6 10 6 6 6 6 16 16 13 23 23 26 29 29 42 39 29 35 32 39 32 42 42 32 32 35 29 29 26 23 23 19 32 32 23
6 10 6 3 3 0 6 6 10 3 6 6 6 6 13 16 13 16 13 19 19 26 32 35 32 29 32 32 26 39 32 32 19 23 39 35 35 29 23 23 26 23 19 23
3 0 3 3 3 3 3 3 6 3 3 3 3 3 3 10 16 16 13 13 16 16 29 35 32 29 29 32 35 23 23 23 19 26 35 29 29 26 23 19 16 16 16 16
0 0 0 3 3 3 6 6 6 6 6 3 3 3 6 10 10 13 13 23 23 23 23 23 23 23 23 23 19 23 23 19 23 16 19 19 23 16 13 16 13 10 6 0
Height
5838 5841 5842 5844 5846 5848 5849 5851 5852 5852 5851 5851 5849 5848 5847 5846 5845 5843 5842 5841 5840 5839 5837 5835 5835 5834 5834 5834 5834 5834 5833 5833 5832 5831 5831 5831 5830 5830 5830 5830 5830 5831 5831 5831
5835 5837 5839 5840 5842 5843 5844 5846 5847 5847 5847 5847 5845 5844 5844 5842 5841 5839 5838 5836 5835 5835 5834 5833 5832 5831 5832 5832 5831 5831 5831 5831 5830 5829 5829 5829 5828 5828 5828 5828 5828 5828 5828 5828
5831 5834 5835 5836 5837 5839 5840 5841 5841 5842 5843 5842 5841 5841 5840 5838 5836 5835 5834 5833 5832 5831 5829 5830 5829 5829 5829 5829 5829 5828 5828 5827 5827 5827 5826 5826 5826 5826 5825 5825 5825 5825 5825 5825
5826 5829 5830 5832 5833 5834 5835 5836 5837 5838 5837 5837 5838 5836 5835 5833 5832 5831 5830 5828 5828 5828 5827 5827 5827 5827 5827 5827 5827 5826 5825 5824 5824 5824 5824 5824 5824 5823 5823 5823 5823 5823 5823 5822
5822 5825 5826 5827 5829 5830 5830 5832 5832 5833 5833 5833 5832 5832 5831 5828 5827 5827 5826 5825 5825 5824 5823 5823 5823 5824 5824 5824 5824 5823 5822 5822 5821 5821 5822 5822 5821 5821 5821 5821 5821 5820 5820 5820
5818 5821 5822 5823 5825 5826 5826 5827 5828 5829 5828 5828 5827 5827 5827 5825 5824 5823 5823 5821 5821 5821 5820 5820 5821 5821 5821 5821 5821 5821 5820 5819 5819 5819 5819 5819 5819 5819 5819 5819 5818 5818 5818 5817
5815 5816 5817 5818 5820 5821 5822 5824 5825 5825 5825 5824 5823 5822 5823 5822 5821 5820 5819 5818 5818 5818 5818 5818 5818 5819 5819 5819 5819 5819 5818 5818 5818 5817 5817 5817 5817 5817 5817 5816 5816 5816 5815 5815
5811 5813 5813 5814 5816 5817 5818 5820 5822 5822 5822 5822 5820 5818 5819 5818 5817 5816 5814 5814 5814 5814 5814 5814 5815 5816 5816 5816 5817 5816 5816 5816 5816 5816 5816 5815 5815 5815 5814 5814 5814 5813 5813 5812
5807 5809 5810 5811 5812 5814 5815 5816 5818 5819 5818 5818 5817 5815 5815 5814 5812 5812 5811 5811 5811 5812 5811 5811 5812 5813 5814 5814 5814 5814 5813 5814 5814 5814 5814 5814 5813 5813 5812 5812 5811 5811 5810 5810
5803 5804 5806 5807 5808 5809 5811 5812 5813 5813 5813 5813 5814 5812 5812 5811 5810 5809 5807 5808 5808 5808 5808 5808 5810 5810 5811 5811 5811 5811 5811 5812 5812 5812 5812 5811 5811 5811 5810 5810 5809 5809 5808 5808
5797 5799 5801 5802 5803 5805 5807 5808 5808 5809 5809 5810 5810 5811 5809 5808 5807 5806 5805 5806 5806 5805 5806 5806 5806 5807 5808 5808 5808 5808 5808 5809 5809 5809 5809 5809 5809 5808 5808 5807 5807 5807 5806 5806
5792 5794 5795 5798 5800 5801 5802 5803 5805 5805 5805 5806 5805 5808 5804 5804 5804 5803 5803 5803 5803 5803 5803 5803 5803 5804 5804 5805 5805 5805 5806 5806 5806 5806 5806 5806 5806 5805 5805 5805 5804 5804 5804 5803
5786 5788 5790 5793 5797 5797 5797 5798 5800 5801 5801 5801 5802 5805 5801 5801 5800 5799 5800 5800 5798 5799 5799 5799 5799 5800 5801 5802 5802 5802 5802 5803 5803 5803 5803 5803 5803 5802 5802 5802 5801 5801 5801 5801
5780 5782 5786 5788 5790 5791 5792 5794 5795 5796 5796 5797 5798 5798 5797 5796 5796 5796 5796 5796 5795 5796 5796 5797 5797 5797 5797 5798 5799 5799 5799 5800 5800 5799 5799 5799 5799 5799 5798 5798 5798 5798 5798 5798
5774 5776 5779 5782 5784 5786 5788 5788 5789 5790 5791 5792 5793 5793 5792 5793 5793 5793 5792 5792 5792 5792 5793 5794 5794 5795 5794 5794 5794 5795 5796 5796 5796 5796 5795 5795 5795 5795 5795 5795 5795 5795 5794 5794
5768 5771 5773 5775 5778 5780 5782 5783 5784 5785 5786 5787 5787 5787 5787 5788 5788 5789 5788 5789 5788 5788 5789 5790 5791 5791 5791 5790 5791 5792 5792 5792 5792 5792 5792 5792 5792 5791 5791 5791 5791 5791 5791 5790
5762 5765 5767 5769 5772 5773 5775 5778 5779 5779 5780 5781 5782 5783 5783 5783 5784 5784 5783 5784 5785 5784 5785 5786 5787 5787 5787 5787 5786 5788 5788 5788 5788 5788 5787 5788 5787 5787 5787 5787 5787 5787 5786 5786
5756 5758 5760 5763 5766 5767 5771 5772 5773 5773 5774 5776 5776 5777 5777 5778 5779 5779 5779 5779 5780 5781 5781 5782 5782 5782 5783 5783 5783 5784 5784 5784 5784 5783 5783 5783 5783 5783 5782 5782 5782 5782 5781 5781
5749 5752 5755 5757 5759 5760 5763 5765 5767 5768 5768 5769 5770 5771 5772 5774 5774 5774 5775 5775 5776 5777 5777 5778 5778 5778 5778 5778 5779 5779 5779 5780 5779 5779 5779 5779 5779 5778 5778 5778 5777 5777 5776 5776
5744 5746 5749 5751 5753 5755 5756 5758 5760 5763 5761 5763 5763 5765 5767 5768 5769 5770 5770 5771 5771 5772 5772 5773 5773 5773 5773 5774 5774 5774 5775 5775 5775 5774 5774 5774 5774 5774 5773 5773 5772 5772 5771 5771
5738 5740 5742 5744 5746 5748 5750 5752 5754 5756 5757 5757 5758 5759 5760 5762 5764 5764 5765 5765 5766 5767 5768 5768 5768 5768 5769 5769 5770 5770 5770 5770 5770 5770 5770 5769 5769 5768 5768 5768 5767 5767 5766 5766
5733 5735 5736 5738 5740 5744 5744 5745 5748 5749 5749 5750 5751 5753 5755 5756 5757 5758 5758 5759 5760 5761 5762 5763 5763 5764 5764 5764 5765 5765 5765 5765 5765 5765 5764 5764 5763 5763 5763 5762 5762 5761 5760 5760
5727 5730 5731 5733 5735 5735 5737 5739 5740 5741 5742 5744 5745 5747 5748 5749 5750 5751 5752 5753 5754 5755 5756 5757 5758 5758 5759 5759 5759 5759 5760 5759 5759 5759 5759 5758 5758 5758 5757 5757 5756 5755 5755 5754
5722 5723 5725 5726 5727 5729 5731 5732 5734 5735 5736 5738 5739 5740 5741 5742 5743 5744 5745 5747 5748 5749 5750 5750 5751 5752 5752 5753 5753 5754 5753 5754 5754 5753 5753 5753 5752 5752 5751 5751 5750 5750 5749 5748
5715 5717 5719 5720 5721 5723 5725 5726 5727 5728 5729 5731 5732 5733 5734 5735 5736 5737 5738 5740 5741 5741 5743 5744 5745 5745 5746 5747 5747 5747 5747 5747 5747 5747 5747 5747 5747 5746 5745 5745 5744 5744 5743 5742
5709 5711 5713 5715 5715 5717 5718 5719 5721 5722 5722 5724 5725 5726 5727 5728 5729 5731 5732 5733 5733 5734 5735 5737 5738 5739 5740 5740 5741 5741 5741 5741 5741 5741 5741 5741 5740 5740 5739 5739 5738 5737 5736 5735
Wind_Speed
15 16 15 13 14 14 15 15 15 17 18 18 19 19 18 17 18 19 19 19 19 17 18 17 16 15 15 14 14 14 15 14 13 13 14 13 13 12 12 12 12 12 12 12
17 16 15 15 15 16 17 17 17 17 17 18 18 18 17 17 18 19 18 18 17 17 18 17 16 15 15 15 15 14 14 14 13 13 13 12 12 12 12 12 12 13 13 13
17 15 16 17 17 17 18 19 18 16 17 19 17 18 18 18 17 18 19 18 17 16 18 18 16 15 15 15 14 14 14 14 14 14 14 12 12 12 12 12 13 12 12 13
17 16 18 19 18 18 19 18 17 16 16 17 16 18 18 19 19 19 18 18 16 17 18 16 16 16 15 15 14 13 13 14 13 13 13 12 12 11 11 12 12 12 11 12
16 16 18 18 16 16 17 16 16 16 16 17 16 17 18 18 19 20 19 18 16 16 17 16 15 15 15 14 13 12 12 13 12 12 11 11 11 11 11 11 12 11 11 11
15 17 18 18 16 17 16 16 15 15 16 19 18 18 18 18 19 19 18 18 16 16 16 15 14 14 14 13 13 12 11 11 10 10 10 11 11 11 11 12 11 11 11 11
15 17 18 17 16 17 16 15 15 14 15 16 16 17 18 17 20 19 18 17 15 15 15 13 12 13 14 14 13 12 12 11 10 9 10 11 12 12 12 11 11 10 10 11
16 17 17 17 17 17 16 15 15 15 15 15 16 18 18 18 20 19 17 14 14 14 14 14 13 13 13 13 13 13 12 11 11 11 11 12 12 11 11 11 10 10 11 11
17 17 17 17 17 16 16 16 15 16 15 16 17 17 17 16 16 17 16 14 14 15 15 14 13 13 13 14 13 13 11 10 11 11 11 11 12 11 11 11 11 10 10 10
17 17 16 16 17 17 16 15 16 16 17 17 17 17 17 17 18 17 15 15 14 15 15 14 14 13 14 14 13 12 11 11 12 12 11 12 12 12 12 11 11 11 10 10
20 20 18 18 18 17 17 17 17 17 18 17 17 18 17 16 15 16 14 15 16 16 15 15 14 14 14 14 13 13 12 12 12 12 12 13 13 13 13 13 12 11 10 10
22 21 21 20 19 18 18 18 19 20 18 17 18 18 15 17 16 17 17 17 17 16 16 16 15 14 15 14 13 13 13 13 13 12 13 13 14 15 14 13 13 12 12 11
24 23 23 20 18 19 20 19 20 20 20 19 19 19 18 17 17 18 19 20 18 17 16 16 14 14 15 14 13 13 13 13 13 14 14 15 15 15 15 14 14 13 13 12
25 24 23 22 21 21 21 20 19 20 21 20 20 19 19 19 19 18 20 21 18 18 18 17 16 15 14 14 14 14 15 14 14 14 14 15 15 15 15 14 14 14 14 14
26 25 23 23 22 22 22 21 21 21 22 21 21 20 18 19 18 17 19 20 19 18 18 17 16 16 15 15 14 14 15 15 15 15 15 14 14 14 15 15 15 16 15 15
27 26 25 24 24 22 22 22 22 22 22 22 22 19 18 20 20 19 20 19 19 18 18 18 17 17 17 17 15 15 16 17 16 16 15 15 15 15 15 15 16 16 16 16
27 27 26 25 23 23 25 24 24 23 23 24 23 20 20 21 21 20 20 18 19 20 19 19 19 19 18 18 17 16 17 17 17 16 16 16 16 16 16 16 16 17 17 18
25 26 25 25 25 26 26 24 24 23 23 24 23 21 20 20 19 19 20 19 19 19 19 19 19 19 19 17 17 18 18 18 18 18 18 17 17 17 17 17 18 18 18 18
25 24 24 25 25 26 26 24 24 24 25 24 24 23 21 19 21 21 21 20 20 20 20 20 20 21 20 19 18 18 18 18 18 18 18 18 17 17 17 17 17 17 18 18
23 24 24 24 24 25 26 24 23 23 25 25 23 22 23 22 22 21 21 21 20 20 20 20 20 20 20 20 19 18 19 18 18 18 18 18 18 18 18 18 18 18 18 18
23 23 22 22 24 25 25 24 23 23 24 23 23 23 23 23 23 22 22 22 21 20 19 19 19 19 19 19 19 18 19 19 18 18 18 19 18 19 19 19 19 19 19 19
23 23 22 22 24 25 24 24 24 25 24 23 24 24 25 24 24 24 23 23 22 21 21 20 20 20 19 19 19 19 19 19 19 19 19 19 20 20 19 19 19 19 19 20
23 24 24 24 25 24 23 24 24 24 25 25 24 24 25 25 25 24 24 23 23 23 23 22 21 21 21 21 20 20 20 20 20 20 20 20 20 20 20 20 20 20 20 20
25 25 25 26 26 24 24 24 26 26 25 25 26 25 25 26 26 25 24 24 25 24 24 23 23 22 22 21 21 21 21 21 21 21 21 21 20 20 20 20 20 21 21 21
24 25 25 26 25 25 25 25 25 24 25 25 25 26 26 26 26 25 25 24 25 25 25 24 23 23 22 22 22 22 21 21 21 21 21 21 21 21 22 21 22 22 22 22
23 23 24 24 25 24 22 23 23 23 23 24 25 25 26 26 25 25 25 24 25 25 24 23 23 22 22 22 22 22 22 21 21 22 22 22 22 22 22 22 22 22 22 23
Wind_Direction
246 247 246 247 250 253 253 253 255 261 269 273 278 282 283 286 287 287 287 284 283 280 280 282 282 284 285 285 286 286 289 291 291 289 287 284 282 279 277 275 274 275 274 272
244 245 248 249 249 249 251 252 254 259 269 275 278 283 284 281 286 288 289 284 280 276 274 276 281 282 285 282 284 286 287 287 287 288 286 282 280 279 277 277 276 278 277 273
244 245 250 251 250 250 253 253 255 259 265 271 275 278 279 277 280 285 286 283 280 274 273 278 280 284 284 285 289 290 286 286 284 285 283 282 281 280 279 279 280 280 279 279
238 240 245 249 248 248 253 255 258 261 264 267 272 276 276 277 281 281 283 282 275 274 270 273 279 283 283 284 285 286 288 290 286 284 283 282 283 282 282 284 285 283 281 282
238 241 245 251 251 251 256 256 259 262 265 263 263 269 274 275 280 283 286 284 281 279 272 276 279 279 281 284 288 290 287 292 288 281 279 282 284 284 286 286 285 282 280 280
241 245 247 250 253 253 254 259 259 259 261 262 259 260 271 278 283 287 289 284 284 281 276 280 279 279 281 284 290 292 289 291 295 285 280 281 284 284 286 288 286 286 282 279
238 245 247 250 252 251 248 253 257 257 263 268 271 262 264 273 277 281 282 278 281 277 273 274 275 277 277 279 285 289 286 284 290 293 286 284 284 284 287 288 289 289 287 286
242 245 250 250 249 247 245 247 252 261 269 271 270 265 266 275 277 275 275 279 282 275 271 273 275 278 275 276 279 283 285 281 284 290 294 286 288 288 288 289 289 288 287 288
243 246 245 248 251 250 248 249 252 259 264 264 264 270 275 281 277 279 274 274 274 275 272 272 276 280 278 277 276 282 283 282 286 287 290 292 292 293 292 291 290 291 293 292
245 242 243 246 249 253 251 248 251 254 262 262 266 267 275 278 278 277 275 278 277 273 272 270 275 276 276 277 278 282 279 283 290 292 290 290 291 294 296 294 294 293 292 292
241 243 242 242 242 245 245 244 247 253 256 262 265 267 270 267 272 273 273 272 274 275 272 269 274 274 273 274 276 279 280 282 286 289 291 290 289 292 296 294 295 292 293 295
242 240 244 244 246 247 248 246 249 253 257 259 266 269 271 269 269 272 273 275 274 271 270 269 271 271 271 271 275 278 276 277 280 284 287 290 290 290 292 291 290 288 287 289
240 238 243 243 244 244 246 248 250 254 258 260 262 266 267 265 268 270 271 272 271 271 271 275 270 271 269 268 268 271 272 275 279 283 284 287 287 285 285 286 287 286 286 287
238 238 242 244 242 242 245 246 249 253 257 259 258 262 260 262 266 271 271 273 273 272 272 275 274 273 273 269 265 268 271 273 276 280 283 283 282 281 281 282 284 284 283 285
239 241 242 246 245 245 250 250 247 251 257 261 259 259 258 263 262 267 273 274 272 272 272 271 271 272 273 270 266 268 269 272 275 278 279 282 282 282 281 282 283 283 284 285
240 242 243 246 245 248 249 249 253 255 258 260 262 259 256 261 261 264 269 270 270 271 272 270 269 272 275 273 271 273 272 274 277 281 279 279 280 280 279 281 282 283 282 283
241 243 246 248 244 246 247 247 250 250 252 255 258 257 256 261 265 266 268 267 268 270 272 271 270 273 274 273 274 272 271 272 274 275 277 278 282 283 283 282 283 284 283 283
244 245 247 248 244 245 246 247 250 250 250 252 254 253 252 257 262 263 267 271 269 270 272 273 274 274 273 275 275 271 272 274 275 275 279 278 282 285 284 283 284 285 284 284
243 243 244 246 246 247 247 248 251 254 253 252 252 254 257 258 261 262 264 267 268 269 272 273 274 274 275 275 276 274 275 277 277 279 280 279 280 283 284 283 284 284 284 284
243 244 244 243 244 245 247 248 251 254 257 256 256 255 256 256 260 263 264 264 265 267 269 272 274 272 271 274 278 276 276 278 278 279 281 280 282 282 282 282 281 283 285 285
242 243 242 242 244 247 248 251 250 251 256 257 256 254 257 257 259 262 263 262 263 264 266 269 271 271 272 276 277 278 279 278 278 279 279 280 280 282 283 282 283 282 283 285
243 242 240 242 245 245 249 253 251 251 253 255 254 255 256 258 259 260 261 261 261 262 265 266 268 270 271 273 274 276 277 277 278 279 279 279 279 281 283 283 285 284 285 285
243 244 243 244 247 248 250 252 253 254 254 256 256 255 255 257 259 261 261 261 262 263 265 266 268 269 270 270 271 272 273 275 277 278 278 277 277 277 279 281 282 283 285 286
244 246 246 248 249 252 252 254 255 257 257 256 256 255 255 257 260 262 260 261 262 263 264 265 265 267 268 270 269 269 271 273 275 277 277 277 275 274 277 281 281 282 283 285
245 246 248 251 250 252 256 255 256 256 255 256 257 255 255 256 258 260 262 262 262 262 263 263 263 265 267 268 270 271 274 274 274 274 274 275 275 274 276 278 279 281 282 285
242 247 248 251 252 254 255 253 253 256 256 255 256 254 255 255 257 258 259 261 260 260 261 262 262 264 266 268 269 272 274 274 273 273 273 274 276 277 275 275 277 281 282 284